Location: Grust
(42.8833°N, 0.0333°W)
Time: 14:07:39
(UTC+00:00)

Lacrosse 5 - Pass Details

Date: 25 October 2020
Orbit: 716 x 723 km, 57.0° (Epoch: 06 November)

Event Time Altitude Azimuth Distance (km) Brightness Sun altitude
Rises 20:01:31 0° 311° (NW) 3,124 6.0 -33.4°
Reaches altitude 10° 20:04:32 10° 329° (NNW) 2,203 4.9 -33.9°
Enters shadow 20:06:03 15° 344° (NNW) 1,856 4.2 -34.2°
